Location: Ariel
(45.9570°N, 122.5700°W)
Time: 16:31:31
(UTC-08:00)

Transit 4A - Pass Details

Date: 07 November 2020
Orbit: 862 x 982 km, 66.8° (Epoch: 03 December)

Event Time Altitude Azimuth Distance (km) Brightness Sun altitude
Rises 21:07:38 0° 327° (NNW) 3,695 11.6 -44.8°
Reaches altitude 10° 21:10:16 10° 331° (NNW) 2,741 10.8 -45.2°
Enters shadow 21:11:15 15° 333° (NNW) 2,392 10.4 -45.4°
